Total_Precipitation_Accumulation
0.09 0.22 0.56 0.98 1.77 1.99 1.47 0.92 0.70 0.68 0.72 0.72 0.63 0.62 0.73 0.90 1.33 2.18 1.96 1.46 1.18 1.24 1.48 1.61 1.96 1.93 1.85 1.71 1.70 1.77 1.75 1.60 1.46 1.43 1.45 1.45 1.48 1.43 1.45 1.50 1.48 1.52 1.50 1.56 1.64 1.57 1.54 1.55 1.60
0.21 0.45 0.82 1.50 2.07 1.62 1.36 0.81 0.50 0.56 0.63 0.78 0.78 0.66 0.60 0.67 0.76 1.09 1.49 1.61 1.08 0.96 1.11 1.23 1.55 1.64 1.64 1.53 1.55 1.58 1.46 1.34 1.30 1.26 1.36 1.42 1.50 1.53 1.53 1.58 1.58 1.57 1.56 1.58 1.60 1.58 1.54 1.58 1.68
0.35 0.60 0.93 1.65 1.35 1.02 1.02 0.66 0.47 0.39 0.55 0.80 0.78 0.59 0.69 0.89 0.92 1.16 1.37 1.36 1.02 0.91 0.92 1.16 1.41 1.49 1.50 1.42 1.40 1.39 1.29 1.25 1.26 1.27 1.30 1.36 1.47 1.56 1.63 1.68 1.71 1.73 1.80 1.72 1.65 1.65 1.55 1.51 1.56
0.49 0.70 1.02 1.13 0.60 0.42 0.48 0.51 0.51 0.49 0.68 0.82 0.70 0.64 0.79 1.01 1.03 1.08 1.08 1.09 0.87 0.96 1.00 1.19 1.50 1.47 1.39 1.28 1.22 1.20 1.21 1.23 1.22 1.27 1.33 1.45 1.48 1.50 1.60 1.68 1.73 1.83 1.79 1.72 1.73 1.76 1.52 1.45 1.51
0.48 0.75 1.13 0.74 0.39 0.29 0.27 0.31 0.38 0.56 0.75 0.88 0.76 0.78 1.04 1.06 0.89 0.87 0.88 1.02 0.99 1.09 1.14 1.26 1.51 1.49 1.36 1.22 1.14 1.12 1.08 1.12 1.11 1.14 1.26 1.46 1.46 1.37 1.47 1.62 1.69 1.66 1.71 1.75 1.79 1.77 1.65 1.59 1.52
0.57 0.68 0.85 0.52 0.29 0.22 0.23 0.28 0.42 0.62 0.68 0.77 0.87 0.98 1.25 1.13 0.95 0.88 0.94 1.06 1.09 1.12 1.13 1.30 1.47 1.48 1.37 1.22 1.11 1.10 1.06 1.03 1.05 1.08 1.20 1.31 1.36 1.37 1.48 1.61 1.58 1.52 1.53 1.61 1.70 1.71 1.70 1.59 1.51
0.67 0.66 0.58 0.37 0.27 0.23 0.26 0.35 0.42 0.55 0.66 0.88 0.90 1.00 1.30 1.33 1.04 0.87 1.02 1.31 1.38 1.32 1.17 1.30 1.46 1.33 1.30 1.27 1.14 1.12 1.09 1.05 1.05 1.06 1.15 1.23 1.34 1.39 1.53 1.73 1.71 1.59 1.50 1.53 1.63 1.62 1.71 1.52 1.41
0.41 0.44 0.41 0.34 0.26 0.22 0.23 0.28 0.41 0.56 0.69 0.75 0.88 1.05 1.20 1.15 0.99 1.01 1.22 1.67 1.90 1.83 1.59 1.34 1.33 1.32 1.24 1.20 1.21 1.23 1.08 1.00 1.06 1.16 1.28 1.35 1.45 1.55 1.68 1.77 1.91 1.77 1.65 1.69 1.78 1.67 1.56 1.51 1.50
0.22 0.36 0.32 0.23 0.19 0.21 0.25 0.29 0.36 0.41 0.52 0.74 0.96 1.13 1.08 0.90 0.93 1.16 1.44 1.81 2.05 1.92 1.81 1.56 1.44 1.41 1.38 1.30 1.18 1.38 1.25 1.15 1.28 1.57 1.64 1.84 2.01 1.92 2.03 1.91 2.09 2.00 1.99 2.16 2.24 2.07 1.90 1.81 1.78
0.15 0.21 0.15 0.10 0.11 0.13 0.17 0.25 0.31 0.45 0.77 1.22 1.47 1.35 1.12 1.00 1.11 1.36 1.59 1.67 1.77 1.81 1.79 1.84 1.66 1.60 1.60 1.46 1.66 2.03 1.80 1.77 2.01 2.15 2.07 2.56 2.84 2.67 2.13 2.17 2.52 2.55 2.64 2.76 2.81 2.83 2.51 2.23 2.02
0.09 0.12 0.09 0.06 0.07 0.10 0.12 0.20 0.30 0.49 1.01 1.49 1.70 1.40 1.21 1.21 1.31 1.45 1.83 1.97 2.04 2.03 1.90 2.00 1.91 1.86 1.93 2.04 2.07 2.29 2.45 2.59 2.69 2.65 2.70 3.04 2.93 2.58 2.29 2.52 2.94 2.99 2.98 3.03 3.17 3.24 2.73 2.65 2.65
0.05 0.06 0.05 0.05 0.05 0.06 0.10 0.19 0.39 0.65 1.04 1.31 1.24 1.11 1.10 1.36 1.55 1.75 2.06 2.39 2.47 2.52 2.45 2.23 2.14 2.38 2.47 2.36 2.30 2.19 2.04 2.11 2.37 2.50 2.45 2.98 3.39 3.25 3.09 3.21 3.19 3.36 3.56 3.84 3.53 3.43 3.18 3.10 2.88
0.04 0.04 0.05 0.05 0.05 0.09 0.12 0.21 0.41 0.72 0.93 0.98 0.86 0.91 1.18 1.53 1.78 2.22 2.65 2.73 2.71 2.96 3.11 2.90 2.82 2.81 2.69 2.76 2.43 2.09 2.02 1.88 1.87 2.22 2.49 2.77 3.15 3.32 3.34 3.18 3.20 3.03 3.16 3.35 3.34 3.05 3.13 3.25 3.17
0.03 0.04 0.06 0.07 0.08 0.11 0.20 0.28 0.40 0.64 0.72 0.73 0.80 1.03 1.25 1.67 1.98 2.50 3.00 3.06 3.15 3.42 3.64 3.52 3.50 3.32 3.05 2.83 2.71 2.54 2.27 2.17 1.90 2.15 2.28 2.61 2.99 3.12 3.01 3.10 3.23 3.04 3.02 3.00 3.01 3.06 3.32 3.46 3.49
0.04 0.06 0.12 0.13 0.14 0.14 0.22 0.46 0.53 0.70 0.77 0.75 0.93 1.08 1.44 1.90 2.20 2.52 2.74 3.13 3.56 3.93 4.01 3.97 3.98 3.90 3.87 3.56 3.17 2.80 2.67 2.38 2.32 2.34 2.28 2.53 2.85 3.07 3.01 3.00 2.87 2.84 2.89 3.03 3.05 3.15 3.31 3.15 3.22
0.07 0.13 0.27 0.25 0.20 0.19 0.27 0.71 0.88 0.80 0.77 0.85 1.01 1.32 1.58 1.88 2.29 2.50 2.81 3.16 3.57 4.08 4.47 4.56 4.08 4.06 4.12 4.03 3.73 3.31 3.22 3.07 2.88 2.60 2.48 2.46 2.69 2.78 2.84 2.66 2.58 2.62 2.50 2.63 2.86 2.88 2.93 3.01 3.17
0.12 0.19 0.25 0.34 0.24 0.22 0.35 0.88 1.21 0.91 0.72 0.87 1.16 1.44 1.79 2.03 2.44 2.56 2.73 3.01 3.47 4.35 5.24 5.26 4.78 4.38 4.10 4.04 4.07 3.94 3.80 3.45 3.01 2.80 2.71 2.56 2.45 2.27 2.34 2.32 2.40 2.32 2.30 2.39 2.25 2.68 2.84 2.99 3.09
0.11 0.17 0.28 0.42 0.29 0.28 0.43 0.85 0.89 0.78 0.94 0.94 1.01 1.20 1.53 1.66 1.96 2.22 2.50 3.04 3.84 5.03 5.80 5.72 5.12 4.69 4.37 4.20 4.06 4.02 3.79 3.52 3.07 2.91 2.75 2.45 2.43 2.13 2.13 2.11 2.20 2.11 2.25 2.45 2.56 2.79 2.76 2.68 2.76
0.09 0.15 0.27 0.32 0.26 0.36 0.47 0.69 0.79 0.92 1.11 1.09 0.94 1.00 1.29 1.49 1.76 2.22 2.77 3.61 4.68 5.60 5.88 5.38 4.91 4.60 4.22 3.85 3.29 2.96 3.03 2.97 2.70 2.43 2.13 2.04 1.97 2.07 2.24 2.04 2.24 2.08 2.16 2.27 2.36 2.48 2.49 2.40 2.48
0.10 0.16 0.26 0.32 0.24 0.30 0.46 0.77 1.09 1.09 1.01 0.95 1.02 1.04 1.14 1.51 1.94 2.66 3.68 4.24 4.50 4.62 4.39 4.06 3.81 3.62 3.18 2.92 2.80 2.59 2.63 2.37 2.23 2.17 2.21 1.87 1.76 1.84 1.82 2.07 2.09 2.09 2.26 2.29 2.27 2.38 2.34 2.16 2.25
0.13 0.17 0.25 0.32 0.22 0.27 0.51 1.00 1.27 1.25 1.03 0.89 0.97 0.99 1.14 1.54 2.12 2.93 3.51 3.62 3.32 3.01 2.92 2.88 2.95 2.72 2.61 2.67 2.62 2.56 2.63 2.36 2.14 2.06 2.13 1.81 1.57 1.59 1.68 1.78 1.91 2.12 2.04 2.16 2.19 2.12 2.20 2.26 2.25
0.13 0.11 0.10 0.14 0.24 0.43 0.63 1.27 1.48 1.24 1.16 0.97 1.00 1.01 1.03 1.30 1.68 2.09 2.34 2.22 2.32 2.46 2.47 2.58 2.67 2.43 2.43 2.40 2.15 2.10 2.08 1.98 1.91 1.90 1.98 2.05 1.70 1.53 1.51 1.59 1.73 1.89 1.84 2.06 1.85 1.97 2.20 2.28 2.16
0.07 0.06 0.08 0.16 0.31 0.52 0.71 1.01 1.22 1.04 1.19 0.98 0.88 0.88 0.82 0.96 1.08 1.19 1.31 1.44 1.65 1.74 1.91 2.20 2.46 2.41 2.25 2.10 2.07 2.16 2.03 2.02 2.02 2.05 2.10 2.16 1.97 1.73 1.55 1.62 1.72 1.78 1.75 1.80 1.80 2.14 2.14 2.07 2.02
0.06 0.09 0.18 0.30 0.48 1.00 0.96 0.94 1.14 1.10 1.21 0.97 0.81 0.71 0.73 0.84 0.94 0.96 1.01 1.15 1.31 1.42 1.59 1.83 2.16 2.31 2.23 2.08 2.00 2.07 2.16 2.15 2.09 2.10 2.07 1.89 1.84 1.84 1.69 1.69 1.77 1.69 1.64 1.66 1.72 1.97 1.99 2.05 2.13
0.08 0.12 0.33 0.70 1.08 1.24 0.81 0.89 1.12 0.92 0.87 0.72 0.52 0.51 0.63 0.81 0.94 1.00 0.96 0.94 1.00 1.14 1.28 1.39 1.61 1.90 2.01 1.97 1.95 1.98 2.14 2.08 1.92 1.82 1.76 1.71 1.55 1.51 1.56 1.63 1.77 1.61 1.55 1.62 1.83 1.94 1.94 2.01 2.03
0.07 0.08 0.20 0.36 0.46 0.61 0.78 1.16 1.26 0.93 0.65 0.41 0.33 0.44 0.67 0.81 0.82 0.87 0.86 0.84 0.82 0.90 1.09 1.23 1.47 1.65 1.84 1.87 1.84 1.87 1.95 1.88 1.76 1.78 1.60 1.56 1.50 1.43 1.53 1.59 1.58 1.55 1.54 1.55 1.89 1.83 1.84 1.90 1.83
0.08 0.08 0.09 0.15 0.19 0.40 0.79 1.09 1.05 0.82 0.64 0.46 0.39 0.45 0.66 0.69 0.65 0.79 0.85 0.94 0.93 0.89 1.00 1.15 1.42 1.68 1.87 1.95 1.97 1.91 1.89 1.90 1.87 1.82 1.61 1.45 1.58 1.50 1.60 1.65 1.60 1.60 1.73 1.88 2.05 1.90 1.90 1.96 1.78
0.08 0.08 0.09 0.11 0.20 0.35 0.63 1.03 1.23 1.03 0.80 0.63 0.54 0.53 0.64 0.68 0.69 0.91 1.05 1.03 0.89 0.76 0.82 1.01 1.27 1.64 1.85 1.97 1.96 1.84 1.98 1.91 1.89 1.85 1.70 1.55 1.55 1.54 1.66 1.78 1.74 1.79 1.82 1.95 2.04 1.88 1.96 1.95 1.84
0.09 0.09 0.11 0.11 0.13 0.22 0.50 0.71 0.66 0.63 0.60 0.63 0.68 0.63 0.54 0.63 0.77 0.94 1.14 1.10 0.86 0.74 0.73 0.87 1.20 1.49 1.64 1.75 1.84 1.77 1.74 1.68 1.69 1.74 1.73 1.69 1.67 1.61 1.62 1.71 1.73 1.70 1.75 1.84 1.95 1.82 1.87 1.85 1.87
0.11 0.12 0.15 0.17 0.15 0.14 0.27 0.51 0.39 0.44 0.54 0.62 0.68 0.76 0.77 0.79 0.83 0.80 0.93 1.09 0.99 0.85 0.78 0.94 1.22 1.41 1.49 1.54 1.57 1.59 1.63 1.61 1.54 1.52 1.57 1.62 1.55 1.48 1.54 1.59 1.57 1.50 1.60 1.76 1.81 1.74 1.82 1.86 1.82